C/2020 P1 ( NEOWISE )

Japanese version
Home page
Updated on November 5, 2020

---------------------------------------------------------------------

* Profile

Discovery Date August 2, 2020
Magnitude 19 mag
Discoverer Near-Earth Object Wide-field Infrared Survey Explorer

* Pictures

* Orbital Elements

Epoch 2020 Nov. 7.0 TT = JDT 2459160.5
T 2020 Oct. 20.17959 TT                                 Rudenko
q   0.3421987            (2000.0)            P               Q
z  -0.0007371      Peri.    8.89718     +0.49927261     -0.65325162
 +/-0.0000265      Node    53.53739     +0.74503732     -0.01168719
e   1.0002522      Incl.   45.05176     +0.44231918     +0.75705068
From 116 observations 2020 Aug. 2-Oct. 24, mean residual 0".8.

* Finding Charts

* Magnitudes Graph

        m1 = 14.0 + 5 log d + 10.0 log r

---------------------------------------------------------------------

The orbital elements are published on M.P.E.C. 2020-U270.
The charts are made with StellaNavigator Ver.10 (AstroArts).
The magnitudes graphs are made with Comet for Windows.

---------------------------------------------------------------------

Copyright(C) Seiichi Yoshida (comet@aerith.net). All rights reserved.